Location: Armstrong
(40.9123°N, 82.0110°W)
Time: 07:16:14
(UTC+00:00)

ATLAS 2AS CENTAUR R/B - Pass Details

Date: 29 October 2020
Orbit: 939 x 1273 km, 63.7° (Epoch: 23 November)

Event Time Altitude Azimuth Distance (km) Brightness Sun altitude
Rises 23:36:26 0° 327° (NNW) 4,165 6.2 -13.6°
Reaches altitude 10° 23:39:57 10° 340° (NNW) 3,152 5.3 -14.3°
Maximum altitude 23:45:56 25° 33° (NNE) 2,154 4.0 -15.4°
Enters shadow 23:48:38 20° 64° (ENE) 2,343 3.9 -15.9°
